K4AVM-13 Weather Reports


Display with metric or nautical units.
time (UTC)temp
F
wind
direction
speed
MPH
gust
MPH
rain 1hr
in
rain 24hr
in
rain mn
in
humidity
%
barometer
mb
20260903180012 95 199 0.0 2.0 0.00 0.01 0.01 64 1017.9
20260903175511 94 29 0.0 2.0 0.00 0.01 0.01 65 1018.0
20260903175010 94 266 0.0 1.0 0.00 0.01 0.01 64 1018.0
20260903174505 93 252 0.0 1.0 0.00 0.01 0.01 68 1017.9
20260903174001 95 353 2.0 3.0 0.00 0.01 0.01 64 1017.9
20260903173455 95 41 0.0 3.0 0.00 0.01 0.01 66 1017.9
20260903172951 93 190 0.0 1.0 0.00 0.01 0.01 68 1018.1
20260903172446 94 283 1.0 2.0 0.00 0.01 0.01 68 1018.1
20260903171941 93 259 1.0 3.0 0.00 0.01 0.01 70 1017.9
20260903171431 93 342 1.0 1.0 0.00 0.01 0.01 68 1018.0
20260903170931 92 230 0.0 1.0 0.00 0.01 0.01 71 1018.1
20260903170425 91 222 1.0 1.0 0.00 0.01 0.01 72 1018.1
20260903165924 92 244 1.0 1.0 0.00 0.01 0.01 70 1018.3
20260903165419 93 229 0.0 3.0 0.00 0.01 0.01 71 1018.2
20260903164919 92 294 1.0 3.0 0.00 0.01 0.01 70 1018.5
20260903164413 91 212 0.0 1.0 0.00 0.01 0.01 72 1018.4
20260903163908 91 119 1.0 1.0 0.00 0.01 0.01 73 1018.6
20260903163404 92 83 2.0 3.0 0.00 0.01 0.01 72 1018.5
20260903162900 91 215 0.0 2.0 0.00 0.01 0.01 72 1018.6
20260903162356 91 8 2.0 3.0 0.00 0.01 0.01 72 1018.7
20260903161852 91 36 1.0 2.0 0.00 0.01 0.01 68 1018.8
20260903161347 90 255 0.0 3.0 0.00 0.01 0.01 72 1018.7
20260903160843 90 223 0.0 1.0 0.00 0.01 0.01 73 1018.8
20260903160341 91 267 0.0 1.0 0.00 0.01 0.01 71 1018.9
20260903155840 91 239 1.0 1.0 0.00 0.01 0.01 72 1018.8
20260903155336 89 343 1.0 1.0 0.00 0.01 0.01 73 1018.8
20260903154831 89 260 0.0 2.0 0.00 0.01 0.01 74 1019.1
20260903154327 89 333 0.0 1.0 0.00 0.01 0.01 76 1018.9
20260903153822 89 251 0.0 1.0 0.00 0.01 0.01 75 1018.8
20260903153318 88 242 1.0 2.0 0.00 0.01 0.01 77 1018.9
20260903152814 87 222 0.0 1.0 0.00 0.01 0.01 77 1018.9
20260903152309 88 322 1.0 2.0 0.00 0.01 0.01 77 1018.8
20260903151804 87 240 0.0 0.0 0.00 0.01 0.01 80 1019.0
20260903151300 88 320 2.0 3.0 0.00 0.01 0.01 77 1018.8
20260903150759 88 183 0.0 1.0 0.00 0.01 0.01 78 1018.9
20260903150254 88 295 1.0 2.0 0.00 0.01 0.01 79 1018.8
20260903145750 88 351 1.0 3.0 0.00 0.01 0.01 78 1018.8
20260903145245 88 235 0.0 2.0 0.00 0.01 0.01 79 1018.7
20260903144743 89 75 1.0 4.0 0.00 0.01 0.01 77 1018.7
20260903144239 88 348 0.0 2.0 0.00 0.01 0.01 77 1018.5
20260903143735 88 94 1.0 2.0 0.00 0.01 0.01 77 1018.7
20260903143231 88 202 1.0 3.0 0.00 0.01 0.01 77 1018.6
20260903142726 88 245 0.0 2.0 0.00 0.01 0.01 77 1018.6
20260903142223 87 43 1.0 3.0 0.00 0.01 0.01 79 1018.7
20260903141718 87 345 2.0 2.0 0.00 0.01 0.01 78 1018.5
20260903141213 89 279 2.0 2.0 0.00 0.01 0.01 77 1018.4
20260903140708 88 55 0.0 1.0 0.00 0.01 0.01 78 1018.2
20260903140203 87 233 0.0 0.0 0.00 0.01 0.01 77 1018.3
20260903135659 86 118 1.0 3.0 0.00 0.01 0.01 80 1018.2
20260903135154 87 218 0.0 2.0 0.00 0.01 0.01 80 1018.3
20260903134652 88 204 0.0 0.0 0.00 0.01 0.01 80 1018.2
20260903134143 87 60 0.0 1.0 0.00 0.01 0.01 80 1018.5
20260903133641 85 228 1.0 1.0 0.00 0.01 0.01 84 1018.2
20260903133136 85 172 0.0 2.0 0.00 0.01 0.01 84 1018.4
20260903132631 85 206 0.0 1.0 0.00 0.01 0.01 85 1018.5
20260903132131 86 241 0.0 2.0 0.00 0.01 0.01 84 1018.5
20260903131625 85 215 0.0 0.0 0.00 0.01 0.01 85 1018.6
20260903131119 85 210 0.0 1.0 0.00 0.01 0.01 85 1018.7
20260903130616 84 185 0.0 0.0 0.00 0.01 0.01 87 1018.5
20260903130109 83 113 0.0 1.0 0.00 0.01 0.01 88 1018.6
20260903125607 82 181 0.0 1.0 0.00 0.01 0.01 89 1018.7
20260903125102 82 230 0.0 1.0 0.00 0.01 0.01 90 1018.5
20260903124557 81 205 0.0 1.0 0.00 0.01 0.01 92 1018.8
20260903124056 80 143 0.0 1.0 0.00 0.01 0.01 93 1018.8
20260903123556 80 171 0.0 1.0 0.00 0.01 0.01 94 1018.8
20260903123055 79 230 0.0 0.0 0.00 0.01 0.01 97 1018.7
20260903122555 78 197 0.0 0.0 0.00 0.01 0.01 99 1018.8
20260903122049 77 190 0.0 0.0 0.00 0.01 0.01 99 1018.8
20260903121543 77 169 0.0 0.0 0.00 0.01 0.01 99 1018.9
20260903121039 77 152 1.0 1.0 0.00 0.01 0.01 99 1018.9
20260903120537 77 175 0.0 1.0 0.00 0.01 0.01 99 1018.8
20260903120033 76 209 0.0 0.0 0.00 0.01 0.01 99 1018.9
20260903115531 76 208 0.0 0.0 0.00 0.01 0.01 99 1018.8
20260903115026 75 211 0.0 0.0 0.00 0.01 0.01 99 1018.8
20260903114521 75 211 0.0 0.0 0.00 0.01 0.01 99 1018.8
20260903114017 75 237 0.0 0.0 0.00 0.01 0.01 99 1018.5
20260903113513 75 237 0.0 0.0 0.00 0.01 0.01 99 1018.8
20260903113009 74 237 0.0 0.0 0.00 0.01 0.01 99 1018.6
20260903112504 74 237 0.0 0.0 0.00 0.01 0.01 99 1018.5
20260903112003 74 237 0.0 0.0 0.00 0.01 0.01 99 1018.4
20260903111457 74 224 0.0 0.0 0.00 0.01 0.01 99 1018.3
20260903110954 74 224 0.0 0.0 0.00 0.01 0.01 99 1018.4
20260903110449 73 224 0.0 0.0 0.05 0.01 0.01 99 1018.2
20260903105943 73 224 0.0 0.0 0.05 0.01 0.01 99 1018.2
20260903105439 74 225 0.0 0.0 0.00 0.00 0.00 99 1018.2
20260903104938 74 227 0.0 0.0 0.00 0.00 0.00 99 1018.2
20260903104437 73 235 0.0 0.0 0.00 0.00 0.00 99 1018.2
20260903103935 73 238 0.0 0.0 0.00 0.00 0.00 99 1018.0
20260903103430 73 239 0.0 0.0 0.00 0.00 0.00 99 1018.1
20260903102926 73 239 0.0 0.0 0.00 0.00 0.00 99 1018.0
20260903102421 73 239 0.0 0.0 0.00 0.00 0.00 99 1018.2
20260903101920 73 219 0.0 0.0 0.00 0.00 0.00 99 1018.0
20260903101415 73 218 0.0 0.0 0.00 0.00 0.00 99 1018.2
20260903100910 73 218 0.0 0.0 0.00 0.00 0.00 99 1018.0
20260903100405 73 218 0.0 0.0 0.00 0.00 0.00 99 1018.0
20260903095902 74 218 0.0 0.0 0.00 0.00 0.00 99 1018.2
20260903095356 73 225 0.0 0.0 0.00 0.00 0.00 99 1018.4
20260903094851 73 231 0.0 0.0 0.00 0.00 0.00 99 1018.4
20260903094346 74 233 0.0 0.0 0.00 0.00 0.00 99 1018.2
20260903093842 73 232 0.0 0.0 0.00 0.00 0.00 99 1018.1
20260903093337 74 231 0.0 0.0 0.00 0.00 0.00 99 1018.3
20260903092832 74 233 0.0 0.0 0.00 0.00 0.00 99 1018.2
20260903092326 74 231 0.0 0.0 0.00 0.00 0.00 99 1018.0
20260903091825 74 231 0.0 0.0 0.00 0.00 0.00 99 1018.0
20260903091319 74 231 0.0 0.0 0.00 0.00 0.00 99 1017.8
20260903090815 74 231 0.0 0.0 0.00 0.00 0.00 99 1018.1
20260903090315 74 231 0.0 0.0 0.00 0.00 0.00 99 1017.8
20260903085813 74 233 0.0 0.0 0.00 0.00 0.00 99 1017.8
20260903085308 74 233 0.0 0.0 0.00 0.00 0.00 99 1017.8
20260903084806 74 231 0.0 0.0 0.00 0.00 0.00 99 1017.8
20260903084300 74 231 0.0 0.0 0.00 0.00 0.00 99 1017.7
20260903083755 74 231 0.0 0.0 0.00 0.00 0.00 99 1017.8
20260903083250 74 231 0.0 0.0 0.00 0.00 0.00 99 1017.6
20260903082749 74 231 0.0 0.0 0.00 0.00 0.00 99 1017.6
20260903082246 74 231 0.0 0.0 0.00 0.00 0.00 99 1017.4
20260903081745 74 231 0.0 0.0 0.00 0.00 0.00 99 1017.7
20260903081241 74 231 0.0 0.0 0.00 0.00 0.00 99 1017.6
20260903080737 74 242 0.0 0.0 0.00 0.00 0.00 99 1017.8
20260903080234 74 242 0.0 0.0 0.00 0.00 0.00 99 1017.9
20260903075734 74 242 0.0 0.0 0.00 0.00 0.00 99 1017.8
20260903075229 74 242 0.0 0.0 0.00 0.00 0.00 99 1017.8
20260903074728 74 242 0.0 0.0 0.00 0.00 0.00 99 1018.0
20260903074223 74 242 0.0 0.0 0.00 0.00 0.00 99 1017.9
20260903073718 74 242 0.0 0.0 0.00 0.00 0.00 99 1017.9
20260903073214 74 242 0.0 0.0 0.00 0.00 0.00 99 1018.0
20260903072710 74 244 0.0 0.0 0.00 0.00 0.00 99 1017.9
20260903072206 75 242 0.0 0.0 0.00 0.00 0.00 99 1018.0
20260903071702 75 242 0.0 0.0 0.00 0.00 0.00 99 1018.0
20260903071157 75 227 0.0 0.0 0.00 0.00 0.00 99 1018.1
20260903070657 75 227 0.0 0.0 0.00 0.00 0.00 99 1018.1
20260903070153 75 245 0.0 0.0 0.00 0.00 0.00 99 1018.0
20260903065647 75 245 0.0 0.0 0.00 0.00 0.00 99 1018.1
20260903065141 75 246 0.0 0.0 0.00 0.00 0.00 99 1018.2
20260903064640 75 250 0.0 0.0 0.00 0.00 0.00 99 1018.0
20260903064136 75 250 0.0 0.0 0.00 0.00 0.00 99 1018.1
20260903063632 75 235 0.0 0.0 0.00 0.00 0.00 99 1018.0
20260903063127 75 235 0.0 0.0 0.00 0.00 0.00 99 1018.0
20260903062623 75 235 0.0 0.0 0.00 0.00 0.00 99 1018.3
20260903062118 75 242 0.0 0.0 0.00 0.00 0.00 99 1018.3
20260903061613 75 231 0.0 0.0 0.00 0.00 0.00 99 1018.2
20260903061112 75 231 0.0 0.0 0.00 0.00 0.00 99 1018.3
20260903060607 75 219 0.0 0.0 0.00 0.00 0.00 99 1018.3
20260903055600 75 218 0.0 0.0 0.00 0.00 0.00 99 1018.4
20260903055058 76 199 0.0 1.0 0.00 0.00 0.00 99 1018.3
20260903054553 75 212 0.0 0.0 0.00 0.00 0.00 99 1018.3
20260903054049 76 197 0.0 0.0 0.00 0.00 0.00 99 1018.5
20260903053544 76 247 0.0 0.0 0.00 0.00 0.00 99 1018.4
20260903053041 76 212 0.0 0.0 0.00 0.00 0.00 99 1018.6
20260903052536 76 215 0.0 0.0 0.00 0.00 0.00 99 1018.7
20260903052032 76 215 0.0 0.0 0.00 0.00 0.00 99 1018.7
20260903051531 76 199 0.0 0.0 0.00 0.00 0.00 99 1019.1
20260903051027 76 258 0.0 0.0 0.00 0.00 0.00 99 1018.8
20260903050526 76 246 0.0 0.0 0.00 0.00 0.00 99 1018.9
20260903050022 76 266 0.0 0.0 0.00 0.00 0.00 99 1019.0
20260903045521 76 303 0.0 0.0 0.00 0.00 0.00 99 1018.8
20260903045018 76 254 0.0 1.0 0.00 0.00 0.00 99 1018.8
20260903044513 76 343 0.0 1.0 0.00 0.00 0.00 99 1018.9
20260903044009 76 254 0.0 0.0 0.00 0.00 0.00 99 1018.7
20260903043504 77 242 0.0 0.0 0.00 0.00 0.00 99 1018.7
20260903043003 77 3 0.0 0.0 0.00 0.00 0.00 99 1018.7
20260903042458 77 250 0.0 0.0 0.00 0.00 0.00 99 1018.6
20260903041954 77 315 0.0 0.0 0.00 0.00 0.00 99 1018.7
20260903041451 77 211 0.0 0.0 0.00 0.00 0.00 99 1018.4
20260903040946 77 122 0.0 1.0 0.00 0.00 0.00 99 1018.4
20260903040444 77 174 0.0 0.0 0.00 0.00 0.00 99 1018.4
20260903035941 76 262 0.0 0.0 0.00 0.02 0.02 99 1018.4
20260903035436 76 231 0.0 0.0 0.00 0.02 0.02 99 1018.3
20260903034932 76 231 0.0 0.0 0.00 0.02 0.02 99 1018.0
20260903034426 77 231 0.0 0.0 0.00 0.02 0.02 99 1018.3
20260903033921 77 231 0.0 0.0 0.00 0.02 0.02 99 1018.1
20260903033417 77 231 0.0 0.0 0.00 0.02 0.02 99 1018.1
20260903032912 77 235 0.0 0.0 0.00 0.02 0.02 99 1017.9
20260903032407 77 260 0.0 0.0 0.00 0.02 0.02 99 1017.9
20260903031902 77 246 0.0 0.0 0.00 0.02 0.02 99 1018.0
20260903031401 77 246 0.0 0.0 0.00 0.02 0.02 99 1017.9
20260903030857 77 242 0.0 0.0 0.00 0.02 0.02 99 1018.1
20260903030353 77 246 0.0 0.0 0.00 0.02 0.02 99 1018.0
20260903025848 77 247 0.0 0.0 0.00 0.02 0.02 99 1018.0
20260903025344 77 247 0.0 0.0 0.00 0.02 0.02 99 1017.9
20260903024844 77 247 0.0 0.0 0.00 0.02 0.02 99 1018.1
20260903024338 77 247 0.0 0.0 0.00 0.02 0.02 99 1018.2
20260903023833 77 247 0.0 0.0 0.00 0.02 0.02 99 1018.2
20260903023329 77 248 0.0 0.0 0.00 0.02 0.02 99 1018.2
20260903022824 78 247 0.0 0.0 0.00 0.02 0.02 99 1018.3
20260903022323 77 247 0.0 0.0 0.00 0.02 0.02 99 1018.2
20260903021817 78 250 0.0 0.0 0.00 0.02 0.02 99 1018.3
20260903021313 78 250 0.0 0.0 0.00 0.02 0.02 99 1018.2
20260903020812 78 254 0.0 0.0 0.00 0.02 0.02 99 1018.2
20260903020307 78 243 0.0 0.0 0.00 0.02 0.02 99 1018.4
20260903015803 78 244 0.0 0.0 0.00 0.02 0.02 98 1018.6
20260903015258 78 243 0.0 0.0 0.00 0.02 0.02 98 1018.5
20260903014753 78 242 0.0 0.0 0.00 0.02 0.02 98 1018.4
20260903014247 79 243 0.0 0.0 0.00 0.02 0.02 97 1018.5
20260903013742 79 246 0.0 0.0 0.00 0.02 0.02 97 1019.0
20260903013241 79 246 0.0 0.0 0.00 0.02 0.02 97 1018.7
20260903012739 79 221 0.0 0.0 0.00 0.02 0.02 97 1018.7
20260903012234 79 227 0.0 0.0 0.00 0.02 0.02 96 1018.8
20260903011728 79 225 0.0 0.0 0.00 0.02 0.02 96 1018.9
20260903011222 79 235 0.0 0.0 0.00 0.02 0.02 96 1018.7
20260903010718 80 280 0.0 0.0 0.00 0.02 0.02 95 1018.8
20260903010218 80 219 0.0 0.0 0.00 0.02 0.02 95 1018.8
20260903005716 80 227 0.0 0.0 0.00 0.02 0.02 95 1018.6
20260903005211 80 235 0.0 1.0 0.00 0.02 0.02 95 1018.7
20260903004707 80 231 0.0 0.0 0.00 0.02 0.02 95 1018.8
20260903004202 80 231 0.0 0.0 0.00 0.02 0.02 94 1018.3
20260903003658 80 108 1.0 1.0 0.00 0.02 0.02 94 1018.4
20260903003153 80 125 0.0 0.0 0.00 0.02 0.02 94 1018.2
20260903002648 80 238 0.0 0.0 0.00 0.02 0.02 94 1018.5
20260903002148 81 214 0.0 0.0 0.00 0.02 0.02 93 1018.5
20260903001643 81 233 0.0 0.0 0.00 0.02 0.02 93 1018.4
20260903001137 81 220 0.0 0.0 0.00 0.02 0.02 92 1018.4
20260903000633 81 223 0.0 0.0 0.00 0.02 0.02 91 1018.2
20260903000132 81 215 0.0 0.0 0.00 0.02 0.02 91 1018.1
20260902235631 82 238 0.0 1.0 0.00 0.02 0.02 91 1018.0
20260902235126 82 216 0.0 3.0 0.00 0.02 0.02 90 1017.9
20260902234620 82 141 0.0 1.0 0.00 0.02 0.02 90 1018.0
20260902234119 82 126 0.0 0.0 0.00 0.02 0.02 90 1018.1
20260902233614 82 215 0.0 0.0 0.00 0.02 0.02 89 1018.2
20260902233108 82 173 1.0 2.0 0.00 0.02 0.02 89 1018.2
20260902232608 82 1 0.0 1.0 0.00 0.02 0.02 90 1018.5
20260902232102 82 1 0.0 0.0 0.00 0.02 0.02 89 1018.8
20260902231556 82 351 0.0 1.0 0.00 0.02 0.02 90 1018.8
20260902231050 82 154 1.0 1.0 0.00 0.02 0.02 90 1018.4
20260902230545 82 294 1.0 1.0 0.00 0.02 0.02 91 1018.4
20260902230044 82 103 0.0 3.0 0.00 0.02 0.02 91 1018.4
20260902225540 82 132 0.0 2.0 0.00 0.02 0.02 92 1018.5
20260902225039 82 149 0.0 0.0 0.00 0.02 0.02 92 1018.7
20260902224538 82 158 1.0 2.0 0.00 0.02 0.02 92 1018.7
20260902224034 82 229 0.0 0.0 0.00 0.02 0.02 91 1018.8
20260902223530 82 219 0.0 1.0 0.00 0.02 0.02 91 1018.9
20260902223029 83 170 1.0 1.0 0.00 0.02 0.02 91 1019.1
20260902222528 83 243 0.0 1.0 0.00 0.02 0.02 90 1019.2
20260902222027 83 231 0.0 0.0 0.00 0.02 0.02 89 1018.4
20260902221521 83 212 0.0 0.0 0.00 0.02 0.02 88 1018.7
20260902221016 83 166 0.0 3.0 0.00 0.02 0.02 87 1018.6
20260902220512 84 235 1.0 4.0 0.00 0.02 0.02 87 1018.9
20260902220006 84 244 1.0 4.0 0.00 0.02 0.02 87 1018.8
20260902215502 85 148 1.0 3.0 0.00 0.02 0.02 86 1018.9
20260902214958 86 127 0.0 1.0 0.00 0.02 0.02 83 1018.8
20260902214457 86 250 0.0 1.0 0.00 0.02 0.02 83 1018.5
20260902213955 87 143 0.0 3.0 0.00 0.02 0.02 81 1018.7
20260902213452 86 216 0.0 0.0 0.00 0.02 0.02 82 1018.5
20260902212950 84 284 1.0 3.0 0.00 0.02 0.02 83 1018.7
20260902212447 84 153 0.0 1.0 0.00 0.02 0.02 86 1019.0
20260902211943 83 137 0.0 2.0 0.00 0.02 0.02 87 1019.1
20260902211439 82 238 0.0 0.0 0.00 0.02 0.02 87 1019.2
20260902210933 81 223 0.0 1.0 0.00 0.02 0.02 87 1018.9
20260902210428 80 152 2.0 2.0 0.07 0.02 0.02 89 1018.8
20260902205921 80 228 0.0 0.0 0.12 0.02 0.02 88 1018.7
20260902205415 81 227 0.0 1.0 0.05 0.01 0.01 82 1019.2
20260902204906 81 214 0.0 0.0 0.00 0.00 0.00 78 1019.2
20260902204405 81 322 2.0 4.0 0.00 0.00 0.00 78 1019.5
20260902203901 82 29 4.0 10.0 0.00 0.00 0.00 77 1019.1
20260902203355 85 21 6.0 10.0 0.00 0.00 0.00 70 1018.8
20260902202850 87 91 4.0 8.0 0.00 0.00 0.00 73 1019.0
20260902202346 91 8 0.0 3.0 0.00 0.00 0.00 71 1018.9
20260902201843 93 230 2.0 6.0 0.00 0.00 0.00 65 1019.0
20260902201342 93 114 1.0 3.0 0.00 0.00 0.00 64 1018.5
20260902200837 95 272 0.0 2.0 0.00 0.00 0.00 61 1018.4
20260902200332 96 13 3.0 6.0 0.00 0.00 0.00 56 1018.5
20260902195828 96 155 0.0 3.0 0.00 0.00 0.00 57 1018.5
20260902195327 96 27 1.0 2.0 0.00 0.00 0.00 56 1018.4
20260902194822 95 245 0.0 1.0 0.00 0.00 0.00 58 1018.4
20260902194316 96 338 2.0 3.0 0.00 0.00 0.00 56 1018.3
20260902193812 95 237 0.0 0.0 0.00 0.00 0.00 62 1018.1
20260902193308 96 160 2.0 3.0 0.00 0.00 0.00 55 1018.2
20260902192807 96 179 0.0 4.0 0.00 0.00 0.00 57 1018.2
20260902192307 96 354 1.0 3.0 0.00 0.00 0.00 56 1018.4
20260902191805 96 228 0.0 2.0 0.00 0.00 0.00 58 1018.4
20260902191300 96 228 0.0 0.0 0.00 0.00 0.00 56 1018.5
20260902190755 95 246 0.0 1.0 0.00 0.00 0.00 56 1018.6
20260902190255 95 312 0.0 2.0 0.00 0.00 0.00 57 1018.5
20260902185751 97 2 2.0 7.0 0.00 0.00 0.00 56 1018.6
20260902185246 97 192 1.0 3.0 0.00 0.00 0.00 56 1018.7
20260902184743 97 45 2.0 3.0 0.00 0.00 0.00 55 1018.7
20260902184242 97 59 3.0 3.0 0.00 0.00 0.00 56 1018.7
20260902183738 97 137 1.0 2.0 0.00 0.00 0.00 57 1018.8
20260902183234 96 244 0.0 3.0 0.00 0.00 0.00 56 1018.8
20260902182730 96 228 0.0 2.0 0.00 0.00 0.00 58 1018.7
20260902182227 95 36 3.0 6.0 0.00 0.00 0.00 57 1018.8
20260902181723 95 239 2.0 3.0 0.00 0.00 0.00 59 1018.9
20260902181222 95 10 4.0 7.0 0.00 0.00 0.00 58 1018.9
20260902180717 95 352 2.0 2.0 0.00 0.00 0.00 57 1019.0
20260902180213 94 172 0.0 3.0 0.00 0.00 0.00 59 1019.1